Regional Weather Roundup
Issued by NWS

Home | Current Version | Previous Version | Text Only | Print | Product List | Glossary On
Versions: 1 2 3 4 5 6 7 8 9 10 11 12 13 14 15 16 17 18 19 20 21 22 23 24 25 26 27 28 29 30 31 32 33 34 35 36 37 38 39 40 41 42 43 44 45 46 47 48 49 50
000
ASUS43 KLMK 200102
RWRKY
KENTUCKY REGIONAL WEATHER ROUNDUP
NATIONAL WEATHER SERVICE LOUISVILLE KY
800 PM EST THU JAN 19 2017

NOTE "FAIR" INDICATES FEW OR NO CLOUDS BELOW 12,000 FEET
WITH NO SIGNIFICANT WEATHER AND/OR OBSTRUCTIONS TO VISIBILITY.

KYZ001>023-026-027-061>063-070>075-200200-
WESTERN AND SOUTH CENTRAL KENTUCKY

CITY           SKY/WX    TMP DP  RH WIND       PRES   REMARKS
PADUCAH        CLOUDY    58  55  90 SE3       29.68F
HENDERSON      CLOUDY    54  48  82 E5        29.72F
OWENSBORO      RAIN      54  54 100 SE6       29.74F FOG
HOPKINSVILLE   DRIZZLE   55  55 100 SE6       29.73F
BOWLING GREEN  LGT RAIN  57  55  93 E6        29.75F FOG
GLASGOW        NOT AVBL
$$

KYZ024-025-028>034-038-045-046-053-200200-
NORTH CENTRAL KENTUCKY

CITY           SKY/WX    TMP DP  RH WIND       PRES   REMARKS
LOUISVILLE/SDF RAIN      50  48  93 E3        29.79F FOG
LOUISVILLE/LOU RAIN      50  47  89 E3        29.80F FOG
FORT KNOX      LGT RAIN  50  50 100 E7        29.77F
$$

KYZ035>037-039>044-047>052-055>060-089>105-200200-
NORTHEAST KENTUCKY

CITY           SKY/WX    TMP DP  RH WIND       PRES   REMARKS
LEXINGTON      LGT RAIN  51  45  79 SE9       29.83F
COVINGTON      LGT RAIN  47  43  86 E8        29.83F
FRANKFORT      LGT RAIN  49  43  80 SE6       29.82F
$$

KYZ054-064>069-076>088-106>120-200200-
SOUTHEAST KENTUCKY

CITY           SKY/WX    TMP DP  RH WIND       PRES   REMARKS
JACKSON        CLOUDY    50  42  74 E6        29.87F
LONDON         LGT RAIN  51  46  83 CALM      29.85F
SOMERSET       LGT RAIN  50  50 100 E3        29.85F
MIDDLESBORO    DRIZZLE   51  47  88 W3        29.88F
MONTICELLO     LGT RAIN  54  53  97 VRB7      29.84F
$$




USA.gov is the U.S. government's official web portal to all federal, state and local government web resources and services.